TimeEST,TemperatureF,Dew PointF,Humidity,Sea Level PressureIn,VisibilityMPH,Wind Direction,Wind SpeedMPH,Gust SpeedMPH,PrecipitationIn,Events,Conditions,WindDirDegrees,DateUTC
12:54 AM,35.1,28.0,76,30.20,10.0,NNW,4.6,-,N/A,,Clear,330,2011-12-20 05:54:00
1:54 AM,34.0,28.9,82,30.19,10.0,NNW,3.5,-,N/A,,Clear,340,2011-12-20 06:54:00
2:54 AM,34.0,28.9,82,30.20,10.0,NNW,6.9,-,N/A,,Clear,330,2011-12-20 07:54:00
3:54 AM,36.0,28.9,76,30.19,10.0,NW,8.1,-,N/A,,Clear,310,2011-12-20 08:54:00
4:54 AM,34.0,28.9,82,30.18,10.0,NNW,4.6,-,N/A,,Clear,330,2011-12-20 09:54:00
5:54 AM,32.0,28.0,85,30.19,10.0,NNW,5.8,-,N/A,,Clear,330,2011-12-20 10:54:00
6:54 AM,33.8,28.4,81,30.19,10.0,North,3.5,-,N/A,,Scattered Clouds,10,2011-12-20 11:54:00
7:54 AM,32.0,28.0,85,30.22,10.0,Calm,Calm,-,N/A,,Partly Cloudy,0,2011-12-20 12:54:00
8:54 AM,37.0,30.9,79,30.21,10.0,SSE,3.5,-,N/A,,Overcast,160,2011-12-20 13:54:00
9:54 AM,42.1,33.1,70,30.22,10.0,Calm,Calm,-,N/A,,Mostly Cloudy,0,2011-12-20 14:54:00
10:54 AM,50.0,39.9,68,30.20,10.0,Variable,4.6,-,N/A,,Overcast,0,2011-12-20 15:54:00
11:34 AM,51.8,42.8,71,30.20,10.0,SE,4.6,-,N/A,,Overcast,140,2011-12-20 16:34:00
11:54 AM,53.1,45.0,74,30.18,10.0,SSE,5.8,-,N/A,,Overcast,160,2011-12-20 16:54:00
12:10 PM,55.4,48.2,77,30.17,10.0,South,12.7,-,N/A,,Overcast,190,2011-12-20 17:10:00
12:54 PM,54.0,48.9,83,30.15,10.0,South,11.5,-,N/A,,Overcast,180,2011-12-20 17:54:00
1:47 PM,55.4,51.8,88,30.13,10.0,South,8.1,-,N/A,,Scattered Clouds,170,2011-12-20 18:47:00
1:54 PM,55.9,51.1,84,30.13,10.0,South,6.9,-,N/A,,Scattered Clouds,170,2011-12-20 18:54:00
2:54 PM,57.0,51.1,81,30.11,10.0,South,10.4,-,N/A,,Mostly Cloudy,170,2011-12-20 19:54:00
3:54 PM,55.0,50.0,83,30.11,10.0,South,6.9,-,N/A,,Overcast,190,2011-12-20 20:54:00
4:54 PM,53.1,52.0,96,30.13,4.0,South,10.4,-,0.00,Rain,Light Rain,170,2011-12-20 21:54:00
5:54 PM,53.1,50.0,89,30.14,5.0,South,11.5,-,0.00,,Overcast,180,2011-12-20 22:54:00
6:08 PM,53.6,50.0,88,30.14,5.0,South,8.1,-,N/A,,Overcast,170,2011-12-20 23:08:00
6:52 PM,51.8,50.0,94,30.15,5.0,SSE,8.1,-,0.00,Rain,Light Rain,160,2011-12-20 23:52:00
6:54 PM,52.0,50.0,93,30.16,5.0,South,8.1,-,0.00,,Overcast,170,2011-12-20 23:54:00
7:13 PM,51.8,51.8,100,30.16,3.0,South,5.8,-,0.01,Rain,Light Rain,170,2011-12-21 00:13:00
7:39 PM,51.8,51.8,100,30.16,3.0,South,5.8,-,0.01,,Overcast,170,2011-12-21 00:39:00
7:50 PM,51.8,51.8,100,30.17,2.0,SSE,5.8,-,N/A,Rain,Light Rain,160,2011-12-21 00:50:00
7:54 PM,51.1,51.1,100,30.18,4.0,South,5.8,-,0.01,Rain,Light Rain,170,2011-12-21 00:54:00
8:24 PM,51.8,50.0,94,30.16,10.0,South,5.8,-,0.01,,Overcast,170,2011-12-21 01:24:00
8:54 PM,51.1,50.0,96,30.16,10.0,SSE,6.9,-,0.01,,Overcast,160,2011-12-21 01:54:00
9:16 PM,51.8,51.8,100,30.16,10.0,Calm,Calm,-,N/A,,Overcast,0,2011-12-21 02:16:00
9:46 PM,51.8,50.0,94,30.16,10.0,SSW,8.1,-,N/A,,Overcast,200,2011-12-21 02:46:00
9:54 PM,52.0,50.0,93,30.15,10.0,South,8.1,-,N/A,,Overcast,190,2011-12-21 02:54:00
10:23 PM,51.8,50.0,94,30.16,10.0,South,9.2,-,0.00,Rain,Light Rain,190,2011-12-21 03:23:00
10:44 PM,51.8,50.0,94,30.15,10.0,South,8.1,-,0.00,,Mostly Cloudy,190,2011-12-21 03:44:00
10:54 PM,52.0,50.0,93,30.13,10.0,South,9.2,-,0.00,,Mostly Cloudy,180,2011-12-21 03:54:00
11:01 PM,51.8,50.0,94,30.13,10.0,SSE,5.8,-,N/A,,Overcast,150,2011-12-21 04:01:00
11:23 PM,51.8,50.0,94,30.14,10.0,Calm,Calm,-,0.00,Rain,Light Rain,0,2011-12-21 04:23:00
11:54 PM,52.0,50.0,93,30.11,10.0,SSW,5.8,-,0.00,,Overcast,210,2011-12-21 04:54:00